Вернуться в каталог

STARLINK-4747

АктивенСвязьVLEO
NORAD 53832·PAYLOAD·🇺🇸 United States

Запущен Sep 19, 2022 с Cape Canaveral Space Force Station

Loading…

Ближайшие Пролёты (ближайшие 24 часа)

TLE

СвежийSource: CelesTrak SupGP

Эпоха: Sep 14, 2026, 22:04 UTC

1 53832C 22114Q   26257.91993056 -.00037312  00000+0 -11023-2 0  2578
2 53832  53.1600 165.5455 0001660  79.7336 128.1768 15.34411634    13

Отслеживайте STARLINK-4747 в реальном времени с AllMySat

Download on the App Store